Activity Log for May, 29 2019

Back to Activity Log Search


Incident Time Nature Address
19A022900 00:27:29 EMS 56XX ARAPAHO TRL
19A022901 00:32:53 51,35 11XX PATHFINDER CV
19A022902 00:37:02 25 PD ACCIDENT W US 24 & REDDING DR
19A022903 03:35:23 50,ATTEMPTED 143XX SR 1
19A022904 03:39:57 123 LEO/CEDARVI 150XX SR 1
19A022905 03:40:22 123 LEO/CEDARVI 150XX SR 1
19A022906 03:53:09 123 LEO/CEDARVI 150XX SR 1
19A022907 04:04:46 123 LEO/CEDARVI 150XX SR 1
19A022908 04:06:21 26HS PI HITSKIP E US 30 & S DOYLE RD
19A022909 05:34:56 30 TRAFFIC STOP AIRPORT EXPRESSWAY & BLUFFTON RD
19A022910 05:43:28 30 TRAFFIC STOP 307XX I 69 SB
19A022911 05:56:54 26 PI ACCIDENT W US 24 & S WESTCOUNTY LINE RD
19A022912 05:58:54 30 TRAFFIC STOP GOSHEN RD & W COOK RD
19A022913 06:08:43 34 TRAFF HAZARD ILLINOIS RD & I 69 305 NB ON RAMP
19A022915 06:17:28 25 PD ACCIDENT W US 30 & FELGER RD
19A022914 06:18:06 30 TRAFFIC STOP AUBURN RD & UNION CHAPEL RD
19A022917 06:29:28 30 TRAFFIC STOP COLDWATER RD & E GUMP RD
19A022918 06:36:17 40A AUDIBLE 5XX LOWER HUNTINGTON RD
19A022919 06:40:31 123 LEO/CEDARVI 150XX SR 1
19A022920 06:48:53 111P DEER PERMI W US 24 & S WESTCOUNTY LINE RD
19A022921 06:49:43 122 HUNTERTOWN 150XX LIMA RD
19A022922 06:52:14 33,34 LIMA RD & W GUMP RD
19A022929 06:56:10 32 DEATH INVEST 27XX WINDRIDGE CT
19A022923 07:01:01 48,36 35XX ADAMS CENTER RD
19A022924 07:13:23 40A AUDIBLE 4XX LOWER HUNTINGTON RD
19A022925 07:14:45 30 TRAFFIC STOP SR 3 & HATHAWAY RD
19A022928 07:17:35 34 TRAFF HAZARD 29XX I 469 SB
19A022927 07:18:26 25 PD ACCIDENT 3XX N NOYER RD
19A022926 07:18:57 35 PARKED VEHIC 46XX ADAMS CENTER RD
19A022930 07:30:02 25HS HIT SKIP 72XX KUMFER AVE
19A022931 07:54:00 14S SERVING WAR 47XX S CALHOUN ST
19A022932 07:55:14 120 GRABILL 135XX STATE ST
19A022933 07:57:08 911 HANG UP 100XX GRABER RD
19A022934 07:58:18 911 HANG UP 98XX MANNING ST
19A022936 08:11:42 108 FOLLOWUP 143XX SR 1
19A022935 08:12:10 48,36 HARPER RD & S DOYLE RD
19A022937 08:15:51 123 LEO/CEDARVI 150XX SR 1
19A022938 08:18:08 40H HOLDUP ALRM 121XX SR 3
19A022942 08:20:13 17 MOTOR CHECK 165XX BAUMAN DR
19A022939 08:20:24 14 WARRANT XX E MAIN ST
19A022940 08:24:01 911 HANG UP XX POPLAR WAY
19A022941 08:24:36 EMS 115XX MARION CENTER RD
19A022943 08:38:51 111D DOG 69XX S WESTHAMILTON RD
19A022944 08:39:46 30 TRAFFIC STOP BASS RD & N SCOTT RD
19A022945 08:42:05 129 114XX ERNST RD
19A022947 08:42:12 33,34 90XX MAYHEW RD
19A022946 08:43:13 80P Serving PO 14XX CASS ST
19A022948 08:50:12 11 PICK UP PRIS 6XX S CALHOUN ST
19A022949 08:51:31 80P Serving PO 5XX GREENLAWN AVE
19A022950 09:12:30 80P Serving PO 23XX TERRACE RD
19A022951 09:13:21 14S SERVING WAR XX E MAIN ST
19A022952 09:23:56 30 TRAFFIC STOP LAKE AVE & HOBSON RD
19A022953 09:33:28 111D DOG 55XX ZUBER DR
19A022954 09:34:26 40A AUDIBLE 38XX VERMILION CLIFFS
19A022955 09:48:16 129 47XX WEATHERSIDE RUN
19A022956 09:58:31 14S SERVING WAR 1XX E SUPERIOR ST
19A022957 10:04:37 80E EVICTION 14XX HIGH ST
19A022958 10:05:28 14S SERVING WAR 7XX S CALHOUN ST
19A022959 10:15:14 14S SERVING WAR 2XX SARA DR
19A022960 10:27:47 14S SERVING WAR 27XX W WASHINGTON CENTER RD
19A022961 10:38:23 33J LOCKED OUT EWING ST & W BRACKENRIDGE ST
19A022962 10:57:29 911 HANG UP 117XX NORTH RIVER RD
19A022963 11:03:25 33 DISABLED VEH 26XX I 469 SB
19A022964 11:06:40 80P Serving PO 131XX COLDWATER RD
19A022965 11:12:05 22I JUV INVEST 23XX S WESTHAMILTON RD
19A022966 11:13:02 17 MOTOR CHECK 76XX BLACK RD
19A022967 11:20:33 911 HANG UP 146XX AMSTUTZ RD
19A022968 11:26:47 EMS 99XX DIEBOLD RD
19A022969 11:28:20 17 MOTOR CHECK 19XX CHANCEL WAY
19A022970 11:42:14 80P Serving PO 29XX W PLEASANT CENTER RD
19A022971 12:15:40 911 HANG UP 11XX FALCON CREEK PKWY
19A022972 12:28:58 30 TRAFFIC STOP NEW HAVEN AVE & SUNNYMEDE DR
19A022973 12:40:08 30 TRAFFIC STOP MAUMEE AVE & S ANTHONY BLVD
19A022974 12:48:38 25 PD ACCIDENT 129XX BRANSTRATOR RD
19A022976 13:12:57 48 SUSPICIOUS 103XX MAYSVILLE RD
19A022975 13:16:14 15 ASSIST KROEMER RD & W WASHINGTON CENTER R
19A022977 13:28:54 111D DOG 44XX E PAULDING RD
19A022978 13:39:00 80P Serving PO 33XX TIMBERHILL DR
19A022979 13:40:07 48 SUSPICIOUS 113XX OLD DECATUR RD
19A022980 13:42:03 48,36 E PAULDING RD & S CALHOUN ST
19A022981 13:46:02 108 FOLLOWUP 37XX FAHLSING RD
19A022982 13:49:18 48,36 122XX W JEFFERSON BLVD
19A022983 13:50:28 129 48XX HOMESTEAD RD
19A022984 13:51:15 14S SERVING WAR 5XX BIRCHTREE LN
19A022985 13:52:42 14S SERVING WAR XX E MAIN ST
19A022986 14:01:33 124 MONROEVILLE 2XX SOUTH ST
19A022987 14:04:09 16 PICK UP ITEM 29XX WELLS ST
19A022988 14:04:49 14S SERVING WAR 21XX ENGLE RD
19A022989 14:05:57 80E EVICTION 46XX WERLING DR
19A022990 14:09:56 80P Serving PO 3XX E MASTERSON AVE
19A022991 14:17:30 120 GRABILL 135XX STATE ST
19A022992 14:17:55 14S SERVING WAR 3XX W SR 930
19A022993 14:20:38 30 TRAFFIC STOP 18XX BLUFFTON RD
19A022994 14:24:51 22I JUV INVEST 155XX LAUDER HILL CT
19A022995 14:26:20 40A AUDIBLE 144XX MIRACLE CT
19A022996 14:31:57 14S SERVING WAR 70XX E SR 930
19A022997 14:32:26 80P Serving PO 12XX W PACKARD AVE
19A022998 14:35:42 30 TRAFFIC STOP W WASHINGTON CENTER RD & FELGER RD
19A022999 14:35:59 80E EVICTION 18XX DUBOIS ST
19A023000 14:37:33 14S SERVING WAR 8XX MANCK DR
19A023001 14:37:56 43 DISTURBANCE 44XX E PAULDING RD
19A023002 14:40:27 30 TRAFFIC STOP 31XX BROOKLYN AVE
19A023003 14:40:56 123 LEO/CEDARVI 150XX SR 1
19A023004 14:43:18 14S SERVING WAR 69XX E SR 930
19A023005 14:43:51 48 SUSPICIOUS 68XX PARROT RD
19A023006 14:54:56 34 TRAFF HAZARD W GUMP RD & DUNTON RD
19A023007 15:06:34 25 PD ACCIDENT 307XX I 69 NB
19A023008 15:08:29 33 DISABLED VEH 321XX I 69 SB
19A023009 15:11:27 33 DISABLED VEH HOMESTEAD RD & JENN RIDGE DR
19A023010 15:12:44 80E EVICTION 16XX WELLS ST
19A023011 15:14:08 14S SERVING WAR XX E MAIN ST
19A023019 15:14:46 17R REREAD 43XX BAIRD RD
19A023012 15:15:40 80P Serving PO 23XX TERRACE RD
19A023014 15:21:05 63 CONTACT 76XX W JEFFERSON BLVD
19A023013 15:22:48 14S SERVING WAR 10XX ROCKHILL ST
19A023015 15:25:40 43 DISTURBANCE 19XX W GUMP RD
19A023021 15:32:36 17 MOTOR CHECK 131XX HOUK RD
19A023016 15:33:23 122 HUNTERTOWN 150XX LIMA RD
19A023017 15:34:21 14S SERVING WAR 62XX ST JOE RD
19A023024 15:35:02 27 RECKLESS DRI 28XX BLACK GOOSE BLVD
19A023018 15:35:27 122 HUNTERTOWN 150XX LIMA RD
19A023020 15:36:22 48 SUSPICIOUS PORTOLA AVE & PRIZE ST
19A023031 15:42:02 35 PARKED VEHIC BLUFFTON RD & WINTERS RD
19A023023 15:44:24 23,35 VAND VEH 8XX RED BLUFF DR
19A023022 15:51:44 33 DISABLED VEH FRITZ RD & W DUPONT RD
19A023026 15:58:25 96JO AIRPORT EXPRESSWAY & LOWER HUNTING
19A023025 15:58:27 14S SERVING WAR 28XX S HARRISON ST
19A023028 16:10:06 30 TRAFFIC STOP 66XX W JEFFERSON BLVD
19A023029 16:18:26 30 TRAFFIC STOP W COLISEUM BLVD & EXECUTIVE BLVD
19A023030 16:19:31 14S SERVING WAR 45XX STARBOARD DR
19A023032 16:23:14 14S SERVING WAR 3XX CONGRESS AVE
19A023033 16:24:16 911 HANG UP 4XX HALLDALE DR
19A023050 16:25:50 33 DISABLED VEH W US 30 & SOLON RD
19A023034 16:33:37 30 TRAFFIC STOP GOSHEN RD & W WASHINGTON CENTER RD
19A023035 16:40:37 14S SERVING WAR 19XX VANCE AVE
19A023036 16:41:17 46,96 90XX MULDOON RD
19A023043 16:41:26 25 PD ACCIDENT 38XX BASS RD
19A023037 16:45:54 30 TRAFFIC STOP W FERGUSON RD & THIELE RD
19A023042 16:50:37 43,62 19XX DELLWOOD DR
19A023038 16:51:02 30 TRAFFIC STOP GOSHEN RD & MERCHANT RD
19A023039 16:53:38 48,36 125XX SR 3
19A023041 16:53:50 911 HANG UP 83XX CHAPEL BEND DR
19A023040 16:54:40 41 MAN DOWN 5XX LOWER HUNTINGTON RD
19A023044 17:06:32 33 DISABLED VEH 29XX I 469 SB
19A023045 17:18:29 30 TRAFFIC STOP BLUFFTON RD & BROOKLYN AVE
19A023046 17:23:04 911 HANG UP 46XX E DUPONT RD
19A023047 17:37:54 30 TRAFFIC STOP BROADWAY & GRACE AVE
19A023048 17:45:34 108 FOLLOWUP 23XX S WESTHAMILTON RD
19A023049 17:52:09 30 TRAFFIC STOP WINCH ST & GRANT AVE
19A023051 17:57:44 30 TRAFFIC STOP BROADWAY & W RUDISILL BLVD
19A023052 18:04:53 911 HANG UP 137XX MAIN ST
19A023053 18:09:12 30 TRAFFIC STOP 18XX BLUFFTON RD
19A023054 18:18:51 30 TRAFFIC STOP BROADWAY & NUTTMAN AVE
19A023055 18:20:42 35 PARKED VEHIC 154XX MAPLE ST
19A023057 18:42:48 911 HANG UP 64XX UNION CHAPEL RD
19A023056 18:42:57 122 HUNTERTOWN 150XX LIMA RD
19A023058 18:54:02 30 TRAFFIC STOP BLUFFTON RD & BROOKLYN AVE
19A023059 19:00:12 1 MEET 68XX BLUFFTON RD
19A023060 19:02:17 14S SERVING WAR 29XX GOSHEN RD
19A023061 19:06:34 30 TRAFFIC STOP BROADWAY & W CREIGHTON AVE
19A023062 19:08:01 14S SERVING WAR 27XX ABBOTT ST
19A023063 19:12:05 96 BATTERY 152XX ROLLING OAKS PL
19A023064 19:18:39 41,36 118XX CROSSWAY DR
19A023065 19:20:59 11 PICK UP PRIS 25XX E DUPONT RD
19A023066 19:21:23 30 TRAFFIC STOP BROADWAY & W RUDISILL BLVD
19A023067 19:30:33 14S SERVING WAR 40XX BOWSER AVE
19A023068 19:31:21 14S SERVING WAR 44XX SMITH ST
19A023070 19:43:41 911 HANG UP 80XX WETHERSFIELD CV
19A023069 19:44:13 30 TRAFFIC STOP BLUFFTON RD & BROOKLYN AVE
19A023071 19:47:04 46,96 130XX MAGNOLIA CREEK TRL
19A023074 19:52:30 HARASSMENT 124XX KRESS RD
19A023072 19:53:20 14S SERVING WAR 34XX RODGERS AVE
19A023073 19:53:42 14S SERVING WAR 16XX HOWELL ST
19A023075 19:56:59 109 DUMPING SOUTHRIVER RD & PRIZE ST
19A023076 20:04:28 14S SERVING WAR 9XX E WASHINGTON BLVD
19A023077 20:08:48 48 SUSPICIOUS SR 1 & SCHLATTER RD
19A023078 20:22:05 14S SERVING WAR 36XX OLIVER ST
19A023079 20:22:33 14S SERVING WAR 10XX CROWDER CT
19A023080 20:29:35 14S SERVING WAR 30XX S ANTHONY BLVD
19A023081 20:33:45 111D DOG 6XX SPILLSON AVE
19A023082 20:36:48 33J LOCKED OUT 93XX MORNING LIGHT TRL
19A023084 20:37:42 48,36 MINNICH RD & E PAULDING RD
19A023083 20:40:58 14S SERVING WAR 41XX LILLIE ST
19A023085 21:02:00 14S SERVING WAR 6XX TILLWATER LN
19A023087 21:22:00 46 DOMESTIC 96XX FEATHER REED DR
19A023086 21:22:29 108 FOLLOWUP XX E MAIN ST
19A023088 21:50:41 17 MOTOR CHECK 112XX W SOUTHCOUNTY LINE RD
19A023089 21:59:27 53IP ROB I/P 4XX W SR 930
19A023090 22:21:53 30 TRAFFIC STOP SR 1 & DIEBOLD RD
19A023091 22:33:12 30 TRAFFIC STOP OLD RIDGE DR & SR 1
19A023092 22:38:38 124 MONROEVILLE 2XX SOUTH ST
19A023093 22:50:05 25 PD ACCIDENT 100XX DIEBOLD RD
19A023094 23:00:52 103 UNWANTED 90XX BETHEL RD
19A023095 23:07:18 103 UNWANTED 5XX LOWER HUNTINGTON RD
19A023096 23:11:37 48 SUSPICIOUS 56XX BASS RD
19A023097 23:28:50 102,TX THREATS XX SURREY LN
19A023098 23:38:13 40A AUDIBLE 5XX SUMPTER DR
19A023099 23:55:25 40A AUDIBLE 5XX SUMPTER DR
19A023100 23:56:36 120 GRABILL 135XX STATE ST
19A023101 23:58:29 120 GRABILL 135XX STATE ST